Volver al catálogo

FENGYUN 1C DEB

ActivoPO
NORAD 41828·DEBRIS·🇨🇳 China

Lanzado May 10, 1999 desde Taiyuan Satellite Launch Center

Loading…

Próximos Pases (próximas 24 horas)

TLE

ActualizadoSource: Space-Track

Época: Sep 13, 2026, 09:32 UTC

1 41828U 99025EYF 26256.39763405  .00008907  00000-0  18330-2 0  9997
2 41828  98.9215  48.5863 0032490  61.9959 298.4520 14.60465706514627

Sigue FENGYUN 1C DEB en tiempo real con AllMySat

Download on the App Store